Weather in Leon

Nicaragua     12°25′25″N   86°52′52″W
temp.,
°C
wind,
m/s
gust,
m/s
humid.,
%
clouds,
%
prec.,
mm/h
press.,
hPa
HPBL,
m
1 march, mon
mon100:00+24ene4107110 0.0 1012568
03:00+23ene411706 0.0 1010532
06:00+22ne4117138 0.0 1011487
09:00+29ne59432 0.0 10131326
12:00+35ene59281 0.0 10112134
15:00+36e69260 0.0 10072530
18:00+31e410380 0.0 1009603
21:00+26ene410570 0.0 1012412
2 march, tue
tue200:00+23ne35700 0.0 1012142
03:00+22ne35740 0.0 101196
06:00+21ne23780 0.0 101283
09:00+29ene59478 0.0 10131260
12:00+36e582851 0.0 10112477
15:00+37e682695 0.0 10082709
18:00+31e5104166 0.0 1009969
21:00+26ene5125248 0.0 1012649
3 march, wed
wed300:00+24e4106456 0.0 1013430
03:00+22ene377528 0.0 1012189
06:00+20ne238144 0.0 101375
09:00+30ene510360 0.0 10151278
12:00+36e47240 0.0 10122418
15:00+37e57230 0.0 10092745
18:00+31e49414 0.0 1010387
21:00+27e411550 0.0 1013468
4 march, thu
thu400:00+23ene24711 0.0 1014129
03:00+22ene237517 0.0 101368
06:00+22ene348025 0.0 1014114
09:00+30ene35480 0.0 10161050
12:00+35ne36304 0.0 10122361
15:00+35nw153235 0.0 10092066
18:00+27sw366437 0.0 1010171
21:00+24ne12741 0.0 101327
5 march, fri
fri500:00+23e26681 0.0 1012174
03:00+22ne23760 0.0 101280
06:00+21ne22820 0.0 101244
09:00+30ene23431 0.0 1014913
12:00+37ne24221 0.0 10111955
15:00+35ssw442543 0.0 10071802
18:00+25wsw246521 0.0 1008129
21:00+22nnw22780 0.0 101142